Location: Gleizolles
(44.4833°N, 6.7667°E)
Time: 03:04:50
(UTC+00:00)

Vanguard 1 Rocket - Pass Details

Date: 02 July 2024
Orbit: 650 x 4219 km, 34.3° (Epoch: 15 July)

Event Time Altitude Azimuth Distance (km) Brightness Sun altitude
Rises 00:56:25 0° 255° (WSW) 4,773 10.8 -20.1°
Reaches altitude 10° 00:59:00 10° 251° (WSW) 4,121 10.4 -20.0°
Maximum altitude 01:10:39 58° 176° (S) 3,065 9.7 -19.2°
Drops below altitude 10° 01:32:13 10° 105° (ESE) 7,144 12.1 -17.6°
Sets 01:38:31 0° 103° (ESE) 8,386 12.5 -17.0°
